FENGYUN 1C DEB *, 46990

Orbit data source: Space-Track

FENGYUN 1C DEB *, 46990 is space debris in SSO originally from a launch on Mon, 10 May 1999 UTC launched from the Taiyaun Space Center, China (TSC). Fengyun 1C debris stems from the Chinese weather satellite Fengyun-1C, which was intentionally destroyed by a Chinese anti-satellite missile in 2007. This event dramatically increased the amount of space debris, with thousands of trackable fragments posing hazards to satellites and human spaceflight. The Fengyun 1C debris cloud has become a focal point in discussions about space sustainability and the need for international regulations to prevent the creation of new debris.

Loading next visibility...
FENGYUN 1C DEB * details
Identifier
46990, 1999-025EZQ
Orbit
SSO
Last TLE update2 days ago
Origin
Flag of CNCASC (CN / PRC)
ManufacturerUnknown
MissionSpacecraft
Bus & MotorUnknown
MassUnknown
Launch date (UTC)
1999-05-10 (26 years ago)
Launch vehicleUnknown
Launch site
Taiyaun Space Center, China (TSC)
Object type
Payload
Rocket body
Debris
Shape & HBRUnknown
Radar Cross SectionSmall (<0.1 m²)

Expand to show TLE details & history

TLE from 2 days ago
0 FENGYUN 1C DEB *
1 46990U 99025EZQ 24359.86270764  .00026014  00000-0  69076-2 0  9999
2 46990  98.2648 222.5608 0418923   7.7248   3.3933 14.07225897208788
Epoch: 2024-12-24T20:42Z
Definitive object data (Epoch: 2024-12-24T20:42:17.94Z)
Latitude11.25067°
Longitude176.47468°
Altitude567.964 km
Speed7.735 km/s
True Right ascension14h 43m 39s
True Declination11° 10' 60"
Sunlit
Object was in daylight at TLE epoch
Visualization TLE readout
Latitude-21.04653°
Longitude-3.33509°
Altitude1,162.469 km
Speed7.126 km/s
Apparent Right ascension03h 48m 10s
Apparent Declination-30° 58' 20"
Sunlit
Object is in daylight
Visualization observer readout
Local Sidereal Time17:21:09
Azimuth71.87° E
Elevation-69.14°
Doppler factor1
Orbital elements
Apogee altitude1,169.503 km
Perigee altitude562.553 km
Semi-major axis7,244.165 km
Eccentricity0.0418923
Inclination98.2648°
RAAN222.5608°
Arg. of periapsis7.7248°
True anomaly3.69307°
Mean anomaly3.3933°
Eccentric anomaly3.54157°
Mean motion3.52015 °/min
BSTAR0.0069076
Orbital period102.27 mins
Loading maneuver chart data...
Loading historical data...
Loading historical data...
Loading historical data...
Loading historical data...
Loading historical data...
Loading historical data...
Loading historical data...

FENGYUN 1C DEB * Visibility forecast

Observer location: undefined°, undefined

Span
Click to sort rows by Start time (UTC) header in descending order
Start Az.
Max El. time (UTC)
Max El. Az.
Max El.
End time (UTC)
End Az.
4 mins2024-12-27 02:10:44.164Z71.663° E2024-12-27 02:12:44.164Z90.025° ESE12.274°2024-12-27 02:14:44.164Z107.747° ESE
11 mins2024-12-27 03:49:44.164Z17.596° NNE2024-12-27 03:54:44.164Z148.504° SSE44.019°2024-12-27 04:00:44.164Z189.68° SSW
7 mins2024-12-27 05:31:44.164Z329.763° NNW2024-12-27 05:34:44.164Z297.469° NW18.332°2024-12-27 05:38:44.164Z258.937° W
7 mins2024-12-27 15:19:44.164Z184.319° SSW2024-12-27 15:22:44.164Z277.15° WNW40.386°2024-12-27 15:26:44.164Z339.255° N
|